| time (UTC) | temp F | wind direction | speed MPH | gust MPH | rain 1hr in | rain 24hr in | rain mn in | humidity % | barometer mb |
| 20260505195513 | 54 | 63 | 1.0 | 8.0 | 0.00 | 0.00 | 0.00 | 67 | 1010.9 |
| 20260505195013 | 54 | 65 | 1.0 | 8.0 | 0.00 | 0.00 | 0.00 | 67 | 1010.9 |
| 20260505194514 | 54 | 44 | 2.0 | 8.0 | 0.00 | 0.00 | 0.00 | 66 | 1010.8 |
| 20260505194016 | 54 | 42 | 3.0 | 7.0 | 0.00 | 0.00 | 0.00 | 65 | 1010.8 |
| 20260505193513 | 54 | 52 | 2.0 | 7.0 | 0.00 | 0.00 | 0.00 | 65 | 1010.7 |
| 20260505193014 | 54 | 75 | 2.0 | 7.0 | 0.00 | 0.00 | 0.00 | 64 | 1010.7 |
| 20260505192512 | 54 | 44 | 2.0 | 6.0 | 0.00 | 0.00 | 0.00 | 64 | 1010.7 |
| 20260505192012 | 54 | 64 | 1.0 | 6.0 | 0.00 | 0.00 | 0.00 | 64 | 1010.6 |
| 20260505191512 | 54 | 59 | 2.0 | 8.0 | 0.00 | 0.00 | 0.00 | 64 | 1010.6 |
| 20260505191011 | 54 | 78 | 2.0 | 8.0 | 0.00 | 0.00 | 0.00 | 64 | 1010.6 |
| 20260505190511 | 54 | 55 | 2.0 | 7.0 | 0.00 | 0.00 | 0.00 | 64 | 1010.5 |
| 20260505190013 | 55 | 53 | 2.0 | 7.0 | 0.00 | 0.00 | 0.00 | 64 | 1010.6 |
| 20260505185511 | 55 | 54 | 2.0 | 6.0 | 0.00 | 0.00 | 0.00 | 64 | 1010.5 |
| 20260505185011 | 55 | 74 | 2.0 | 6.0 | 0.00 | 0.00 | 0.00 | 64 | 1010.5 |
| 20260505184522 | 55 | 74 | 2.0 | 5.0 | 0.00 | 0.00 | 0.00 | 64 | 1010.5 |
| 20260505184014 | 55 | 11 | 1.0 | 6.0 | 0.00 | 0.00 | 0.00 | 64 | 1010.4 |
| 20260505183511 | 55 | 75 | 2.0 | 9.0 | 0.00 | 0.00 | 0.00 | 64 | 1010.4 |
| 20260505183010 | 55 | 66 | 2.0 | 9.0 | 0.00 | 0.00 | 0.00 | 63 | 1010.4 |
| 20260505182510 | 55 | 49 | 3.0 | 9.0 | 0.00 | 0.00 | 0.00 | 63 | 1010.4 |
| 20260505182010 | 55 | 40 | 2.0 | 9.0 | 0.00 | 0.00 | 0.00 | 63 | 1010.4 |
| 20260505181510 | 55 | 86 | 4.0 | 10.0 | 0.00 | 0.00 | 0.00 | 63 | 1010.4 |
| 20260505181009 | 56 | 67 | 3.0 | 10.0 | 0.00 | 0.00 | 0.00 | 63 | 1010.4 |
| 20260505180509 | 56 | 48 | 3.0 | 8.0 | 0.00 | 0.00 | 0.00 | 63 | 1010.4 |
| 20260505180009 | 56 | 74 | 3.0 | 10.0 | 0.00 | 0.00 | 0.00 | 64 | 1010.4 |
| 20260505175508 | 56 | 65 | 2.0 | 11.0 | 0.00 | 0.00 | 0.00 | 64 | 1010.4 |
| 20260505175008 | 56 | 56 | 5.0 | 11.0 | 0.00 | 0.00 | 0.00 | 63 | 1010.3 |
| 20260505174508 | 56 | 30 | 4.0 | 10.0 | 0.00 | 0.00 | 0.00 | 63 | 1010.4 |
| 20260505174008 | 56 | 60 | 4.0 | 10.0 | 0.00 | 0.00 | 0.00 | 63 | 1010.4 |
| 20260505173508 | 56 | 40 | 3.0 | 9.0 | 0.00 | 0.00 | 0.00 | 62 | 1010.5 |
| 20260505173007 | 57 | 83 | 4.0 | 9.0 | 0.00 | 0.00 | 0.00 | 62 | 1010.5 |
| 20260505172507 | 57 | 60 | 2.0 | 9.0 | 0.00 | 0.00 | 0.00 | 63 | 1010.5 |
| 20260505172007 | 56 | 71 | 2.0 | 8.0 | 0.00 | 0.00 | 0.00 | 63 | 1010.5 |
| 20260505171508 | 56 | 63 | 1.0 | 10.0 | 0.00 | 0.00 | 0.00 | 63 | 1010.5 |
| 20260505171007 | 56 | 66 | 2.0 | 10.0 | 0.00 | 0.00 | 0.00 | 63 | 1010.5 |
| 20260505170506 | 56 | 39 | 1.0 | 10.0 | 0.00 | 0.00 | 0.00 | 63 | 1010.5 |
| 20260505170011 | 56 | 68 | 3.0 | 10.0 | 0.00 | 0.00 | 0.00 | 63 | 1010.6 |
| 20260505165506 | 56 | 60 | 2.0 | 6.0 | 0.00 | 0.00 | 0.00 | 64 | 1010.5 |
| 20260505165007 | 56 | 63 | 4.0 | 8.0 | 0.00 | 0.00 | 0.00 | 63 | 1010.6 |
| 20260505164507 | 56 | 22 | 2.0 | 8.0 | 0.00 | 0.00 | 0.00 | 63 | 1010.6 |
| 20260505164006 | 57 | 61 | 4.0 | 9.0 | 0.00 | 0.00 | 0.00 | 62 | 1010.6 |
| 20260505163506 | 57 | 59 | 2.0 | 10.0 | 0.00 | 0.00 | 0.00 | 62 | 1010.5 |
| 20260505163006 | 57 | 54 | 3.0 | 10.0 | 0.00 | 0.00 | 0.00 | 63 | 1010.5 |
| 20260505162508 | 57 | 39 | 4.0 | 10.0 | 0.00 | 0.00 | 0.00 | 62 | 1010.5 |
| 20260505162004 | 58 | 38 | 2.0 | 11.0 | 0.00 | 0.00 | 0.00 | 62 | 1010.5 |
| 20260505161504 | 58 | 51 | 4.0 | 11.0 | 0.00 | 0.00 | 0.00 | 62 | 1010.4 |
| 20260505161004 | 58 | 82 | 5.0 | 10.0 | 0.00 | 0.00 | 0.00 | 62 | 1010.4 |
| 20260505160506 | 58 | 57 | 2.0 | 10.0 | 0.00 | 0.00 | 0.00 | 63 | 1010.5 |
| 20260505153100 | 57 | 267 | 2.0 | 8.0 | 0.00 | 0.00 | 0.00 | 62 | 1010.6 |
| 20260505152604 | 57 | 158 | 1.0 | 6.0 | 0.00 | 0.00 | 0.00 | 63 | 1010.7 |
| 20260505152059 | 57 | 288 | 1.0 | 9.0 | 0.00 | 0.00 | 0.00 | 64 | 1010.7 |
| 20260505151559 | 57 | 92 | 2.0 | 13.0 | 0.00 | 0.00 | 0.00 | 63 | 1010.6 |
| 20260505151059 | 57 | 11 | 1.0 | 9.0 | 0.00 | 0.00 | 0.00 | 63 | 1010.7 |
| 20260505150559 | 57 | 58 | 4.0 | 8.0 | 0.00 | 0.00 | 0.00 | 63 | 1010.7 |
| 20260505140555 | 56 | 61 | 4.0 | 10.0 | 0.00 | 0.00 | 0.00 | 64 | 1010.9 |
| 20260505140109 | 56 | 84 | 1.0 | 6.0 | 0.00 | 0.00 | 0.00 | 64 | 1010.9 |
| 20260505124554 | 59 | 95 | 0.0 | 7.0 | 0.00 | 0.00 | 0.00 | 60 | 1010.9 |
| 20260505124052 | 59 | 48 | 1.0 | 7.0 | 0.00 | 0.00 | 0.00 | 60 | 1010.9 |
| 20260505123552 | 59 | 30 | 0.0 | 9.0 | 0.00 | 0.00 | 0.00 | 60 | 1010.8 |
| 20260505123054 | 59 | 55 | 2.0 | 9.0 | 0.00 | 0.00 | 0.00 | 60 | 1010.8 |
| 20260505122551 | 59 | 41 | 0.0 | 5.0 | 0.00 | 0.00 | 0.00 | 60 | 1010.8 |
| 20260505122050 | 58 | 195 | 1.0 | 10.0 | 0.00 | 0.00 | 0.00 | 60 | 1010.8 |
| 20260505121551 | 59 | 58 | 1.0 | 10.0 | 0.00 | 0.00 | 0.00 | 59 | 1010.9 |
| 20260505121050 | 59 | 290 | 0.0 | 3.0 | 0.00 | 0.00 | 0.00 | 61 | 1010.9 |
| 20260505120548 | 59 | 244 | 0.0 | 9.0 | 0.00 | 0.00 | 0.00 | 60 | 1010.9 |
| 20260505120100 | 59 | 49 | 1.0 | 9.0 | 0.00 | 0.00 | 0.00 | 62 | 1011.0 |
| 20260505115547 | 58 | 44 | 0.0 | 8.0 | 0.00 | 0.00 | 0.00 | 64 | 1010.9 |
| 20260505115048 | 58 | 48 | 0.0 | 4.0 | 0.00 | 0.00 | 0.00 | 62 | 1011.0 |
| 20260505114547 | 58 | 325 | 0.0 | 5.0 | 0.00 | 0.00 | 0.00 | 62 | 1010.9 |
| 20260505114046 | 58 | 265 | 0.0 | 6.0 | 0.00 | 0.00 | 0.00 | 63 | 1011.0 |
| 20260505113547 | 58 | 17 | 2.0 | 6.0 | 0.00 | 0.00 | 0.00 | 64 | 1011.0 |
| 20260505113049 | 58 | 81 | 0.0 | 5.0 | 0.00 | 0.00 | 0.00 | 63 | 1011.1 |
| 20260505112647 | 58 | 62 | 0.0 | 5.0 | 0.00 | 0.00 | 0.00 | 63 | 1011.1 |
| 20260505112044 | 58 | 204 | 2.0 | 9.0 | 0.00 | 0.00 | 0.00 | 62 | 1011.2 |
| 20260505111547 | 59 | 57 | 2.0 | 9.0 | 0.00 | 0.00 | 0.00 | 62 | 1011.1 |
| 20260505111045 | 58 | 178 | 0.0 | 5.0 | 0.00 | 0.00 | 0.00 | 62 | 1011.2 |
| 20260505110541 | 58 | 303 | 0.0 | 7.0 | 0.00 | 0.00 | 0.00 | 62 | 1011.1 |
| 20260505102033 | 56 | 267 | 0.0 | 10.0 | 0.00 | 0.00 | 0.00 | 64 | 1011.6 |
| 20260505101534 | 55 | 39 | 1.0 | 10.0 | 0.00 | 0.00 | 0.00 | 66 | 1011.6 |
| 20260505101029 | 55 | 51 | 1.0 | 8.0 | 0.00 | 0.00 | 0.00 | 66 | 1011.7 |
| 20260505100529 | 55 | 13 | 0.0 | 4.0 | 0.00 | 0.00 | 0.00 | 69 | 1011.6 |
| 20260505100027 | 54 | 321 | 1.0 | 6.0 | 0.00 | 0.00 | 0.00 | 71 | 1011.7 |
| 20260505095524 | 54 | 63 | 1.0 | 6.0 | 0.00 | 0.00 | 0.00 | 70 | 1011.7 |
| 20260505095023 | 54 | 248 | 0.0 | 9.0 | 0.00 | 0.00 | 0.00 | 70 | 1011.7 |
| 20260505094526 | 54 | 335 | 2.0 | 9.0 | 0.00 | 0.00 | 0.00 | 71 | 1011.7 |
| 20260505094020 | 53 | 47 | 1.0 | 9.0 | 0.00 | 0.00 | 0.00 | 73 | 1011.7 |
| 20260505093519 | 53 | 55 | 2.0 | 9.0 | 0.00 | 0.00 | 0.00 | 75 | 1011.8 |
| 20260505093018 | 53 | 75 | 0.0 | 6.0 | 0.00 | 0.00 | 0.00 | 76 | 1011.8 |
| 20260505092518 | 53 | 171 | 0.0 | 6.0 | 0.00 | 0.00 | 0.00 | 75 | 1011.8 |
| 20260505092018 | 53 | 315 | 0.0 | 3.0 | 0.00 | 0.00 | 0.00 | 75 | 1011.7 |
| 20260505091517 | 53 | 209 | 0.0 | 4.0 | 0.00 | 0.00 | 0.00 | 76 | 1011.8 |
| 20260505091016 | 53 | 17 | 0.0 | 5.0 | 0.00 | 0.00 | 0.00 | 77 | 1011.8 |
| 20260505090515 | 52 | 333 | 1.0 | 5.0 | 0.00 | 0.00 | 0.00 | 77 | 1011.9 |
| 20260505090017 | 52 | 355 | 1.0 | 8.0 | 0.00 | 0.00 | 0.00 | 78 | 1011.9 |
| 20260505085513 | 52 | 38 | 0.0 | 8.0 | 0.00 | 0.00 | 0.00 | 77 | 1012.0 |
| 20260505085013 | 52 | 44 | 2.0 | 5.0 | 0.00 | 0.00 | 0.00 | 76 | 1012.0 |
| 20260505084525 | 52 | 101 | 0.0 | 9.0 | 0.00 | 0.00 | 0.00 | 77 | 1012.1 |
| 20260505084012 | 52 | 327 | 1.0 | 9.0 | 0.00 | 0.00 | 0.00 | 77 | 1012.0 |
| 20260505083511 | 52 | 93 | 1.0 | 10.0 | 0.00 | 0.00 | 0.00 | 76 | 1012.0 |
| 20260505083012 | 52 | 84 | 2.0 | 6.0 | 0.00 | 0.00 | 0.00 | 75 | 1012.0 |
| 20260505082511 | 52 | 157 | 1.0 | 10.0 | 0.00 | 0.00 | 0.00 | 76 | 1012.0 |
| 20260505082010 | 52 | 80 | 3.0 | 10.0 | 0.00 | 0.00 | 0.00 | 78 | 1011.9 |
| 20260505081509 | 51 | 348 | 1.0 | 10.0 | 0.00 | 0.00 | 0.00 | 79 | 1011.9 |
| 20260505081008 | 51 | 9 | 3.0 | 10.0 | 0.00 | 0.00 | 0.00 | 81 | 1012.0 |
| 20260505080510 | 50 | 53 | 1.0 | 9.0 | 0.00 | 0.00 | 0.00 | 82 | 1012.0 |
| 20260505080017 | 50 | 67 | 3.0 | 7.0 | 0.00 | 0.00 | 0.00 | 82 | 1012.1 |
| 20260505075504 | 50 | 67 | 1.0 | 6.0 | 0.00 | 0.00 | 0.00 | 82 | 1012.0 |
| 20260505075004 | 50 | 43 | 2.0 | 6.0 | 0.00 | 0.00 | 0.00 | 83 | 1012.0 |
| 20260505074504 | 49 | 344 | 0.0 | 7.0 | 0.00 | 0.00 | 0.00 | 83 | 1012.1 |
| 20260505074003 | 49 | 259 | 2.0 | 7.0 | 0.00 | 0.00 | 0.00 | 82 | 1012.1 |
| 20260505073503 | 50 | 49 | 2.0 | 8.0 | 0.00 | 0.00 | 0.00 | 82 | 1012.1 |
| 20260505073002 | 49 | 314 | 2.0 | 7.0 | 0.00 | 0.00 | 0.00 | 83 | 1012.1 |
| 20260505072502 | 49 | 31 | 3.0 | 8.0 | 0.00 | 0.00 | 0.00 | 83 | 1012.1 |
| 20260505072102 | 49 | 65 | 3.0 | 9.0 | 0.00 | 0.00 | 0.00 | 83 | 1012.2 |
| 20260505071601 | 48 | 94 | 2.0 | 10.0 | 0.00 | 0.00 | 0.00 | 84 | 1012.1 |
| 20260505071058 | 48 | 61 | 2.0 | 10.0 | 0.00 | 0.00 | 0.00 | 84 | 1012.1 |
| 20260505070559 | 48 | 77 | 2.0 | 9.0 | 0.00 | 0.00 | 0.00 | 84 | 1012.1 |
| 20260505070104 | 48 | 86 | 3.0 | 9.0 | 0.00 | 0.00 | 0.00 | 84 | 1012.2 |
| 20260505065553 | 48 | 223 | 2.0 | 7.0 | 0.00 | 0.00 | 0.00 | 85 | 1012.1 |
| 20260505065051 | 48 | 144 | 1.0 | 7.0 | 0.00 | 0.00 | 0.00 | 85 | 1012.1 |
| 20260505064556 | 47 | 263 | 0.0 | 5.0 | 0.00 | 0.00 | 0.00 | 86 | 1012.1 |
| 20260505064049 | 47 | 55 | 1.0 | 7.0 | 0.00 | 0.00 | 0.00 | 86 | 1012.1 |
| 20260505063550 | 47 | 35 | 2.0 | 9.0 | 0.00 | 0.00 | 0.00 | 86 | 1012.1 |
| 20260505063048 | 47 | 47 | 2.0 | 7.0 | 0.00 | 0.00 | 0.00 | 87 | 1012.1 |
| 20260505062548 | 47 | 56 | 1.0 | 7.0 | 0.00 | 0.00 | 0.00 | 87 | 1012.1 |
| 20260505062047 | 46 | 117 | 1.0 | 6.0 | 0.00 | 0.00 | 0.00 | 87 | 1012.1 |
| 20260505061610 | 46 | 300 | 1.0 | 3.0 | 0.00 | 0.00 | 0.00 | 87 | 1012.1 |
| 20260505061047 | 46 | 294 | 0.0 | 3.0 | 0.00 | 0.00 | 0.00 | 87 | 1012.2 |
| 20260505060547 | 46 | 346 | 0.0 | 4.0 | 0.00 | 0.00 | 0.00 | 87 | 1012.3 |
| 20260505060053 | 46 | 315 | 0.0 | 4.0 | 0.00 | 0.00 | 0.00 | 88 | 1012.3 |
| 20260505055546 | 46 | 75 | 0.0 | 3.0 | 0.00 | 0.00 | 0.00 | 88 | 1012.2 |
| 20260505055046 | 46 | 74 | 1.0 | 3.0 | 0.00 | 0.00 | 0.00 | 88 | 1012.2 |
| 20260505054548 | 46 | 182 | 0.0 | 3.0 | 0.00 | 0.00 | 0.00 | 89 | 1012.2 |
| 20260505054045 | 46 | 207 | 0.0 | 3.0 | 0.00 | 0.00 | 0.00 | 90 | 1012.1 |
| 20260505053545 | 45 | 70 | 0.0 | 2.0 | 0.00 | 0.00 | 0.00 | 90 | 1012.2 |
| 20260505053043 | 45 | 59 | 0.0 | 2.0 | 0.00 | 0.00 | 0.00 | 91 | 1012.1 |
| 20260505052546 | 45 | 108 | 0.0 | 0.0 | 0.00 | 0.00 | 0.00 | 91 | 1012.1 |
| 20260505052042 | 45 | 59 | 0.0 | 0.0 | 0.00 | 0.00 | 0.00 | 91 | 1012.2 |
| 20260505051541 | 45 | 90 | 0.0 | 0.0 | 0.00 | 0.00 | 0.00 | 91 | 1012.2 |
| 20260505051041 | 45 | 302 | 0.0 | 0.0 | 0.00 | 0.00 | 0.00 | 91 | 1012.2 |
| 20260505050540 | 45 | 233 | 0.0 | 0.0 | 0.00 | 0.00 | 0.00 | 92 | 1012.2 |
| 20260505041535 | 46 | 321 | 0.0 | 0.0 | 0.00 | 0.00 | 0.00 | 93 | 1012.0 |
| 20260505041036 | 46 | 355 | 0.0 | 0.0 | 0.00 | 0.00 | 0.00 | 93 | 1011.9 |
| 20260505040534 | 46 | 266 | 0.0 | 0.0 | 0.00 | 0.00 | 0.00 | 93 | 1011.9 |
| 20260505040043 | 46 | 266 | 0.0 | 0.0 | 0.00 | 0.00 | 0.00 | 93 | 1011.9 |
| 20260505035534 | 46 | 266 | 0.0 | 0.0 | 0.00 | 0.00 | 0.00 | 93 | 1011.8 |
| 20260505035035 | 46 | 266 | 0.0 | 0.0 | 0.00 | 0.00 | 0.00 | 93 | 1011.9 |
| 20260505034539 | 46 | 266 | 0.0 | 0.0 | 0.00 | 0.00 | 0.00 | 93 | 1012.0 |
| 20260505034033 | 46 | 266 | 0.0 | 0.0 | 0.00 | 0.00 | 0.00 | 93 | 1012.0 |
| 20260505033533 | 46 | 266 | 0.0 | 0.0 | 0.00 | 0.00 | 0.00 | 93 | 1012.1 |
| 20260505033033 | 46 | 266 | 0.0 | 0.0 | 0.00 | 0.00 | 0.00 | 93 | 1012.0 |
| 20260505032534 | 46 | 266 | 0.0 | 0.0 | 0.00 | 0.00 | 0.00 | 93 | 1012.0 |
| 20260505032036 | 47 | 267 | 0.0 | 0.0 | 0.00 | 0.00 | 0.00 | 93 | 1012.0 |
| 20260505031540 | 47 | 267 | 0.0 | 0.0 | 0.00 | 0.00 | 0.00 | 93 | 1012.0 |
| 20260505031031 | 47 | 267 | 0.0 | 0.0 | 0.00 | 0.00 | 0.00 | 93 | 1011.8 |
| 20260505030531 | 47 | 267 | 0.0 | 0.0 | 0.00 | 0.00 | 0.00 | 94 | 1011.8 |
| 20260505030031 | 47 | 267 | 0.0 | 0.0 | 0.00 | 0.00 | 0.00 | 93 | 1011.9 |
| 20260505025532 | 47 | 267 | 0.0 | 0.0 | 0.00 | 0.00 | 0.00 | 94 | 1012.0 |
| 20260505025033 | 47 | 267 | 0.0 | 0.0 | 0.00 | 0.00 | 0.00 | 94 | 1012.0 |
| 20260505024529 | 47 | 269 | 0.0 | 0.0 | 0.00 | 0.00 | 0.00 | 94 | 1012.0 |
| 20260505024027 | 47 | 269 | 0.0 | 0.0 | 0.00 | 0.00 | 0.00 | 93 | 1012.1 |
| 20260505023527 | 47 | 269 | 0.0 | 0.0 | 0.00 | 0.00 | 0.00 | 94 | 1012.2 |
| 20260505023028 | 47 | 269 | 0.0 | 0.0 | 0.00 | 0.00 | 0.00 | 94 | 1012.3 |
| 20260505022527 | 47 | 269 | 0.0 | 0.0 | 0.00 | 0.00 | 0.00 | 94 | 1012.2 |
| 20260505022029 | 47 | 269 | 0.0 | 0.0 | 0.00 | 0.00 | 0.00 | 95 | 1012.3 |
| 20260505021526 | 46 | 273 | 0.0 | 0.0 | 0.00 | 0.00 | 0.00 | 95 | 1012.3 |
| 20260505021026 | 46 | 273 | 0.0 | 0.0 | 0.00 | 0.00 | 0.00 | 95 | 1012.3 |
| 20260505020637 | 46 | 273 | 0.0 | 0.0 | 0.00 | 0.00 | 0.00 | 94 | 1012.3 |
| 20260505020043 | 46 | 273 | 0.0 | 0.0 | 0.00 | 0.00 | 0.00 | 95 | 1012.2 |
| 20260505015521 | 46 | 282 | 0.0 | 0.0 | 0.00 | 0.00 | 0.00 | 95 | 1012.3 |
| 20260505015021 | 45 | 301 | 0.0 | 0.0 | 0.00 | 0.00 | 0.00 | 95 | 1012.4 |
| 20260505014520 | 45 | 14 | 0.0 | 0.0 | 0.00 | 0.00 | 0.00 | 95 | 1012.4 |
| 20260505014021 | 45 | 24 | 0.0 | 0.0 | 0.00 | 0.00 | 0.00 | 95 | 1012.4 |
| 20260505013520 | 45 | 38 | 0.0 | 0.0 | 0.00 | 0.00 | 0.00 | 94 | 1012.4 |
| 20260505013019 | 45 | 41 | 0.0 | 0.0 | 0.00 | 0.00 | 0.00 | 94 | 1012.4 |
| 20260505012518 | 45 | 42 | 0.0 | 0.0 | 0.00 | 0.00 | 0.00 | 94 | 1012.5 |
| 20260505012018 | 44 | 42 | 0.0 | 0.0 | 0.00 | 0.00 | 0.00 | 94 | 1012.5 |
| 20260505011518 | 44 | 42 | 0.0 | 0.0 | 0.00 | 0.00 | 0.00 | 94 | 1012.5 |
| 20260505011017 | 44 | 42 | 0.0 | 0.0 | 0.00 | 0.00 | 0.00 | 94 | 1012.6 |
| 20260505010516 | 45 | 42 | 0.0 | 0.0 | 0.00 | 0.00 | 0.00 | 94 | 1012.6 |
| 20260505010016 | 45 | 40 | 0.0 | 0.0 | 0.00 | 0.00 | 0.00 | 94 | 1012.7 |
| 20260505005515 | 45 | 40 | 0.0 | 0.0 | 0.00 | 0.00 | 0.00 | 94 | 1012.7 |
| 20260505005015 | 45 | 40 | 0.0 | 0.0 | 0.00 | 0.00 | 0.00 | 94 | 1012.7 |
| 20260505004518 | 45 | 40 | 0.0 | 0.0 | 0.00 | 0.00 | 0.00 | 94 | 1012.7 |
| 20260505004014 | 44 | 40 | 0.0 | 0.0 | 0.00 | 0.00 | 0.00 | 94 | 1012.7 |
| 20260505003516 | 44 | 39 | 0.0 | 0.0 | 0.00 | 0.00 | 0.00 | 93 | 1012.8 |
| 20260505003013 | 44 | 39 | 0.0 | 0.0 | 0.00 | 0.00 | 0.00 | 93 | 1012.9 |
| 20260505002512 | 44 | 39 | 0.0 | 0.0 | 0.00 | 0.00 | 0.00 | 93 | 1013.0 |
| 20260505002012 | 45 | 39 | 0.0 | 0.0 | 0.00 | 0.00 | 0.00 | 93 | 1013.0 |
| 20260505001512 | 45 | 39 | 0.0 | 0.0 | 0.00 | 0.00 | 0.00 | 93 | 1013.0 |
| 20260505001012 | 45 | 39 | 0.0 | 0.0 | 0.00 | 0.00 | 0.00 | 93 | 1013.0 |
| 20260505000510 | 45 | 39 | 0.0 | 0.0 | 0.00 | 0.00 | 0.00 | 93 | 1013.0 |
| 20260505000012 | 45 | 39 | 0.0 | 0.0 | 0.00 | 0.00 | 0.00 | 93 | 1013.0 |
| 20260504235509 | 45 | 39 | 0.0 | 0.0 | 0.00 | 0.01 | 0.00 | 93 | 1012.9 |
| 20260504235009 | 45 | 39 | 0.0 | 0.0 | 0.00 | 0.01 | 0.00 | 93 | 1013.0 |
| 20260504234510 | 45 | 39 | 0.0 | 0.0 | 0.00 | 0.01 | 0.00 | 93 | 1013.0 |
| 20260504234008 | 45 | 39 | 0.0 | 0.0 | 0.00 | 0.01 | 0.00 | 93 | 1013.0 |
| 20260504233507 | 45 | 39 | 0.0 | 0.0 | 0.00 | 0.01 | 0.00 | 93 | 1013.0 |
| 20260504233007 | 45 | 39 | 0.0 | 0.0 | 0.00 | 0.01 | 0.00 | 93 | 1013.0 |
| 20260504232507 | 46 | 39 | 0.0 | 0.0 | 0.00 | 0.01 | 0.00 | 92 | 1013.0 |
| 20260504232006 | 46 | 39 | 0.0 | 0.0 | 0.00 | 0.01 | 0.00 | 93 | 1013.0 |
| 20260504231506 | 46 | 39 | 0.0 | 0.0 | 0.00 | 0.01 | 0.00 | 92 | 1013.0 |
| 20260504231010 | 46 | 39 | 0.0 | 0.0 | 0.00 | 0.01 | 0.00 | 92 | 1013.0 |
| 20260504230505 | 46 | 39 | 0.0 | 0.0 | 0.00 | 0.01 | 0.00 | 92 | 1013.0 |
| 20260504230004 | 46 | 39 | 0.0 | 0.0 | 0.00 | 0.01 | 0.00 | 92 | 1013.0 |
| 20260504225502 | 46 | 39 | 0.0 | 0.0 | 0.00 | 0.02 | 0.01 | 92 | 1013.1 |
| 20260504225003 | 46 | 39 | 0.0 | 0.0 | 0.00 | 0.02 | 0.01 | 92 | 1013.1 |
| 20260504224502 | 46 | 39 | 0.0 | 0.0 | 0.00 | 0.02 | 0.01 | 92 | 1013.1 |
| 20260504224002 | 46 | 39 | 0.0 | 0.0 | 0.00 | 0.02 | 0.01 | 92 | 1013.2 |
| 20260504223501 | 47 | 39 | 0.0 | 0.0 | 0.00 | 0.02 | 0.01 | 92 | 1013.2 |
| 20260504223002 | 47 | 39 | 0.0 | 0.0 | 0.00 | 0.02 | 0.01 | 91 | 1013.2 |
| 20260504222502 | 47 | 39 | 0.0 | 0.0 | 0.00 | 0.02 | 0.01 | 91 | 1013.2 |
| 20260504222103 | 47 | 39 | 0.0 | 0.0 | 0.00 | 0.02 | 0.01 | 91 | 1013.3 |
| 20260504221600 | 47 | 39 | 0.0 | 0.0 | 0.00 | 0.02 | 0.01 | 91 | 1013.3 |
| 20260504221100 | 47 | 39 | 0.0 | 0.0 | 0.00 | 0.02 | 0.01 | 91 | 1013.4 |
| 20260504220559 | 47 | 39 | 0.0 | 0.0 | 0.00 | 0.02 | 0.01 | 91 | 1013.4 |
| 20260504220104 | 47 | 39 | 0.0 | 0.0 | 0.00 | 0.02 | 0.01 | 91 | 1013.4 |
| 20260504215559 | 47 | 39 | 0.0 | 0.0 | 0.00 | 0.02 | 0.01 | 90 | 1013.4 |
| 20260504215057 | 47 | 41 | 0.0 | 0.0 | 0.00 | 0.02 | 0.01 | 90 | 1013.3 |
| 20260504214559 | 48 | 41 | 0.0 | 0.0 | 0.00 | 0.02 | 0.01 | 90 | 1013.3 |
| 20260504214056 | 48 | 41 | 0.0 | 0.0 | 0.00 | 0.02 | 0.01 | 89 | 1013.3 |
| 20260504213556 | 48 | 41 | 0.0 | 0.0 | 0.00 | 0.02 | 0.01 | 89 | 1013.3 |
| 20260504213109 | 48 | 41 | 0.0 | 0.0 | 0.00 | 0.02 | 0.01 | 89 | 1013.4 |
| 20260504212555 | 48 | 41 | 0.0 | 0.0 | 0.00 | 0.02 | 0.01 | 88 | 1013.4 |
| 20260504212055 | 49 | 41 | 0.0 | 0.0 | 0.00 | 0.02 | 0.01 | 88 | 1013.4 |
| 20260504211554 | 49 | 41 | 0.0 | 0.0 | 0.00 | 0.02 | 0.01 | 88 | 1013.4 |
| 20260504211052 | 49 | 41 | 0.0 | 0.0 | 0.00 | 0.02 | 0.01 | 88 | 1013.5 |
| 20260504210552 | 49 | 41 | 0.0 | 0.0 | 0.00 | 0.02 | 0.01 | 87 | 1013.5 |
| 20260504210052 | 49 | 41 | 0.0 | 0.0 | 0.00 | 0.02 | 0.01 | 88 | 1013.5 |
| 20260504205552 | 49 | 41 | 0.0 | 0.0 | 0.00 | 0.02 | 0.01 | 88 | 1013.5 |
| 20260504205051 | 50 | 40 | 0.0 | 0.0 | 0.00 | 0.02 | 0.01 | 87 | 1013.5 |
| 20260504204600 | 50 | 40 | 0.0 | 0.0 | 0.00 | 0.02 | 0.01 | 87 | 1013.5 |
| 20260504204051 | 50 | 39 | 0.0 | 0.0 | 0.00 | 0.02 | 0.01 | 86 | 1013.5 |
| 20260504203551 | 50 | 39 | 0.0 | 0.0 | 0.00 | 0.02 | 0.01 | 86 | 1013.5 |
| 20260504203050 | 50 | 39 | 0.0 | 0.0 | 0.00 | 0.02 | 0.01 | 86 | 1013.6 |
| 20260504202551 | 50 | 39 | 0.0 | 1.0 | 0.00 | 0.02 | 0.01 | 85 | 1013.6 |
| 20260504202048 | 51 | 39 | 0.0 | 2.0 | 0.00 | 0.02 | 0.01 | 85 | 1013.5 |
| 20260504201549 | 51 | 39 | 0.0 | 2.0 | 0.00 | 0.02 | 0.01 | 85 | 1013.4 |
| 20260504201048 | 51 | 39 | 0.0 | 2.0 | 0.00 | 0.02 | 0.01 | 85 | 1013.4 |
| 20260504200547 | 51 | 37 | 0.0 | 5.0 | 0.00 | 0.02 | 0.01 | 85 | 1013.4 |
| 20260504200047 | 51 | 36 | 1.0 | 5.0 | 0.00 | 0.02 | 0.01 | 85 | 1013.3 |